Weather in Karpinsk

Russia / Sverdlovsk Oblast     59°45′59″N   60°00′04″E
temp.,
°C
wind,
m/s
gust,
m/s
humid.,
%
clouds,
%
prec.,
mm/h
press.,
hPa
HPBL,
m
23 april, fri
fri2323:00+5ssw3880100 0.0 1028386
02:00+5ssw3687100 0.0 1028399
05:00+5s3693100 0.5 1027744
08:00+4s3495100 1.6 1028639
11:00+4ssw2495100 1.6 1028371
14:00+6ssw238788 0.0 1029496
17:00+7sw227483 0.1 1029620
20:00+6ssw117855 0.0 102921
24 april, sat
sat2423:00+3ssw119216 0.0 102924
02:00+2w009433 0.0 102910
05:00+1nnw119575 0.0 102812
08:00+4e1288100 0.0 1027161
11:00+7e237195 0.0 1026827
14:00+8ese4571100 0.1 1024956
17:00+6e3686100 0.3 1023988
20:00+5e2696100 0.8 1022260
25 april, sun
sun2523:00+5ese4991100 1.4 1021828
02:00+4ese4893100 0.1 1019742
05:00+4ese3897100 0.7 1019658
08:00+4e4988100 0.1 1017661
11:00+6ese5967100 0.1 10151375
14:00+5ese51089100 0.5 1014991
17:00+5ese4992100 1.3 1013757
20:00+6ese41077100 0.8 1010987
26 april, mon
mon2623:00+5e41089100 2.4 10071012
02:00+4ese2697100 1.6 1005792
05:00+3w3996100 6.9 1005617
08:00+4wsw4975100 0.2 1006991
11:00+6wsw586096 0.3 10071531
14:00+7wsw585399 0.1 10061974
17:00+7wsw595777 0.4 10071707
20:00+4wsw4107470 0.1 10081136
27 april, tue
tue2723:00+3wsw41077100 0.1 10081189
02:00+3wsw41181100 0.1 10081260
05:00+3w5117698 0.1 10091234
08:00+4w496970 0.0 10091150
11:00+6w476289 0.1 10101398
14:00+8w475018 0.1 10091526
17:00+10w353954 0.1 10082030
20:00+6wnw11595 0.0 100710